EW6196 Weather Reports


Display with metric or nautical units.
time (UTC)temp
F
wind
direction
speed
MPH
gust
MPH
rain 1hr
in
rain 24hr
in
rain mn
in
humidity
%
barometer
mb
20221206034508 22 177 0.0 1.0 0.00 0.01 0.00 64 1015.1
20221206033007 22 177 0.0 1.0 0.00 0.01 0.00 62 1015.1
20221206024506 23 177 0.0 5.0 0.00 0.01 0.00 61 1014.8
20221206023007 24 177 0.0 5.0 0.00 0.01 0.00 58 1014.8
20221206020005 25 176 0.0 2.0 0.00 0.01 0.00 58 1014.5
20221206011504 25 146 0.0 4.0 0.00 0.01 0.00 63 1014.2
20221206004503 25 144 0.0 0.0 0.00 0.01 0.00 78 1014.2
20221206001501 25 144 0.0 0.0 0.00 0.01 0.00 81 1014.1
20221205234502 25 144 0.0 4.0 0.00 0.01 0.00 80 1013.7
20221205233002 26 144 0.0 4.0 0.00 0.01 0.00 78 1013.4
20221205230001 27 114 0.0 7.0 0.00 0.01 0.00 75 1012.9
20221205224604 28 65 1.0 7.0 0.00 0.01 0.00 71 1012.7
20221205214500 29 134 0.0 4.0 0.00 0.01 0.00 66 1012.3
20221205211500 29 134 0.0 3.0 0.00 0.01 0.00 63 1011.9
20221205210005 31 135 0.0 4.0 0.00 0.01 0.00 64 1011.0
20221205204459 30 134 0.0 1.0 0.00 0.01 0.00 62 1011.1
20221205194459 31 109 0.0 4.0 0.00 0.01 0.00 64 1010.5
20221205191459 31 109 0.0 3.0 0.00 0.02 0.00 67 1010.0
20221205184459 31 109 0.0 3.0 0.00 0.02 0.00 67 1010.1
20221205183000 30 109 0.0 3.0 0.00 0.03 0.00 70 1009.9
20221205174457 31 97 0.0 3.0 0.00 0.03 0.00 69 1010.0
20221205171457 30 97 0.0 3.0 0.00 0.03 0.00 69 1010.1
20221205164456 30 89 0.0 4.0 0.00 0.03 0.00 69 1010.0
20221205161451 30 88 0.0 4.0 0.00 0.03 0.00 70 1009.9
20221205154451 30 85 0.0 4.0 0.00 0.03 0.00 71 1009.5
20221205152950 29 68 0.0 4.0 0.00 0.03 0.00 72 1009.1
20221205144448 29 59 0.0 3.0 0.00 0.03 0.00 75 1009.1
20221205142949 28 34 0.0 3.0 0.00 0.03 0.00 76 1008.6
20221205134446 28 21 0.0 4.0 0.00 0.03 0.00 76 1007.8
20221205131447 28 14 0.0 0.0 0.00 0.03 0.00 76 1007.1
20221205124446 28 14 0.0 0.0 0.00 0.03 0.00 75 1006.8
20221205121445 29 14 0.0 0.0 0.00 0.03 0.00 75 1006.6
20221205114445 29 14 0.0 0.0 0.00 0.03 0.00 74 1006.5
20221205111445 29 9 0.0 3.0 0.00 0.03 0.00 74 1006.3
20221205104439 29 340 0.0 1.0 0.00 0.03 0.00 75 1006.7
20221205102940 28 279 0.0 2.0 0.00 0.03 0.00 77 1006.3
20221205095942 28 279 0.0 0.0 0.00 0.03 0.00 77 1006.0
20221205094437 29 279 0.0 0.0 0.00 0.03 0.00 77 1006.2
20221205084435 28 279 0.0 0.0 0.00 0.03 0.00 75 1005.7
20221205081435 27 279 0.0 1.0 0.00 0.03 0.00 76 1005.8
20221205074435 28 279 0.0 0.0 0.00 0.03 0.00 74 1005.5
20221205071435 29 279 0.0 1.0 0.00 0.03 0.00 73 1005.5
20221205065930 29 279 0.0 1.0 0.00 0.03 0.00 71 1005.5
20221205061429 29 279 0.0 3.0 0.00 0.03 0.00 70 1005.8
20221205054430 30 279 0.0 1.0 0.00 0.03 0.03 69 1005.6
20221205051423 30 279 0.0 1.0 0.01 0.03 0.03 68 1005.7
20221205044423 31 279 0.0 2.0 0.01 0.03 0.03 67 1005.8
20221205041422 31 279 0.0 4.0 0.00 0.02 0.02 65 1005.7